TimeCST,TemperatureF,Dew PointF,Humidity,Sea Level PressureIn,VisibilityMPH,Wind Direction,Wind SpeedMPH,Gust SpeedMPH,PrecipitationIn,Events,Conditions,WindDirDegrees,DateUTC
12:03 AM,33.8,32.0,93,30.37,4.0,NE,3.5,-,0.03,Rain,Light Freezing Rain,40,2013-11-25 06:03:00
12:22 AM,33.8,32.0,93,30.37,5.0,NE,3.5,-,0.06,Rain,Rain,40,2013-11-25 06:22:00
12:25 AM,33.8,32.0,93,30.37,5.0,NNE,4.6,-,0.07,Rain,Light Freezing Rain,30,2013-11-25 06:25:00
12:32 AM,33.8,32.0,93,30.36,5.0,NE,3.5,-,0.08,Rain,Light Freezing Rain,40,2013-11-25 06:32:00
12:40 AM,33.8,32.0,93,30.36,7.0,NNE,3.5,-,0.08,Rain,Light Freezing Rain,30,2013-11-25 06:40:00
12:53 AM,33.1,32.0,96,30.35,4.0,NNE,6.9,-,0.10,Rain,Rain,30,2013-11-25 06:53:00
1:10 AM,33.8,32.0,93,30.34,8.0,NE,5.8,-,0.00,Snow,Light Snow,40,2013-11-25 07:10:00
1:34 AM,33.8,32.0,93,30.32,9.0,ENE,6.9,-,0.00,Snow,Light Snow,60,2013-11-25 07:34:00
1:53 AM,34.0,32.0,92,30.32,10.0,East,8.1,-,0.00,,Overcast,90,2013-11-25 07:53:00
2:05 AM,33.8,32.0,93,30.31,10.0,East,6.9,-,N/A,,Overcast,90,2013-11-25 08:05:00
2:12 AM,33.8,32.0,93,30.32,10.0,East,3.5,-,N/A,,Overcast,100,2013-11-25 08:12:00
2:53 AM,34.0,32.0,92,30.33,10.0,East,5.8,-,0.01,,Overcast,90,2013-11-25 08:53:00
3:02 AM,33.8,32.0,93,30.34,9.0,Calm,Calm,-,0.00,Rain,Light Rain,0,2013-11-25 09:02:00
3:53 AM,34.0,33.1,96,30.29,4.0,East,8.1,-,0.08,Rain,Rain,100,2013-11-25 09:53:00
4:53 AM,35.1,33.1,92,30.29,7.0,ENE,3.5,-,0.03,Rain,Light Rain,70,2013-11-25 10:53:00
5:53 AM,35.1,33.1,92,30.27,9.0,East,5.8,-,0.03,Rain,Light Rain,80,2013-11-25 11:53:00
6:53 AM,35.1,33.1,92,30.28,9.0,East,4.6,-,0.03,Rain,Light Rain,80,2013-11-25 12:53:00
7:53 AM,34.0,33.1,96,30.27,7.0,NE,5.8,-,0.13,Rain,Light Rain,40,2013-11-25 13:53:00
8:53 AM,35.1,34.0,96,30.28,4.0,NE,5.8,-,0.09,Rain,Rain,50,2013-11-25 14:53:00
9:02 AM,35.6,33.8,93,30.27,5.0,NE,5.8,-,0.02,Rain,Rain,40,2013-11-25 15:02:00
9:13 AM,35.6,33.8,93,30.28,6.0,NE,4.6,-,0.03,Rain,Rain,40,2013-11-25 15:13:00
9:21 AM,35.6,33.8,93,30.28,7.0,NE,5.8,-,0.04,Rain,Light Rain,40,2013-11-25 15:21:00
9:33 AM,35.6,33.8,93,30.28,9.0,NE,6.9,-,0.04,Snow,Light Snow,50,2013-11-25 15:33:00
9:53 AM,35.1,34.0,96,30.28,7.0,ENE,9.2,-,0.05,Snow,Light Snow,60,2013-11-25 15:53:00
10:01 AM,35.6,33.8,93,30.27,5.0,ENE,9.2,-,0.01,Rain,Light Freezing Rain,70,2013-11-25 16:01:00
10:20 AM,35.6,33.8,93,30.26,7.0,ENE,9.2,-,0.03,Rain,Light Freezing Rain,60,2013-11-25 16:20:00
10:31 AM,35.6,33.8,93,30.27,7.0,ENE,5.8,-,0.03,Rain,Light Rain,60,2013-11-25 16:31:00
10:38 AM,35.6,33.8,93,30.27,8.0,NE,5.8,-,0.03,Rain,Light Freezing Rain,50,2013-11-25 16:38:00
10:53 AM,35.1,34.0,96,30.26,4.0,NE,9.2,-,0.06,Rain,Light Freezing Rain,50,2013-11-25 16:53:00
11:19 AM,35.6,33.8,93,30.26,8.0,North,5.8,-,0.03,Rain,Light Freezing Rain,360,2013-11-25 17:19:00
11:34 AM,35.6,33.8,93,30.25,5.0,NE,5.8,-,0.06,Rain,Rain,40,2013-11-25 17:34:00
11:41 AM,35.6,33.8,93,30.24,5.0,ENE,6.9,-,0.07,Rain,Light Freezing Rain,70,2013-11-25 17:41:00
11:53 AM,36.0,34.0,93,30.25,6.0,NNE,4.6,-,0.09,Rain,Light Freezing Rain,20,2013-11-25 17:53:00
12:27 PM,35.6,33.8,93,30.22,7.0,NNE,5.8,-,0.04,Rain,Light Freezing Rain,20,2013-11-25 18:27:00
12:42 PM,35.6,33.8,93,30.20,7.0,NE,8.1,-,0.06,Rain,Light Freezing Rain,40,2013-11-25 18:42:00
12:53 PM,36.0,34.0,93,30.20,8.0,NNE,8.1,-,0.07,Rain,Light Freezing Rain,30,2013-11-25 18:53:00
1:01 PM,35.6,35.6,100,30.19,7.0,NE,8.1,-,0.01,Rain,Light Freezing Rain,40,2013-11-25 19:01:00
1:09 PM,35.6,33.8,93,30.19,7.0,NNE,8.1,-,0.01,Rain,Light Freezing Rain,30,2013-11-25 19:09:00
1:16 PM,35.6,33.8,93,30.19,6.0,NNE,8.1,-,0.02,Rain,Light Freezing Rain,20,2013-11-25 19:16:00
1:42 PM,35.6,33.8,93,30.17,9.0,NNE,8.1,-,0.05,Rain,Light Rain,20,2013-11-25 19:42:00
1:53 PM,36.0,34.0,93,30.19,8.0,NNE,6.9,-,0.06,Rain,Light Freezing Rain,20,2013-11-25 19:53:00
2:21 PM,35.6,33.8,93,30.18,6.0,North,6.9,-,0.02,Rain,Light Freezing Rain,10,2013-11-25 20:21:00
2:53 PM,36.0,35.1,97,30.16,5.0,North,8.1,-,0.11,Rain,Light Freezing Rain,10,2013-11-25 20:53:00
3:09 PM,35.6,35.6,100,30.15,9.0,North,5.8,-,0.01,Rain,Light Freezing Rain,10,2013-11-25 21:09:00
3:53 PM,36.0,35.1,97,30.16,6.0,NNE,6.9,-,0.05,Rain,Rain,20,2013-11-25 21:53:00
4:03 PM,35.6,35.6,100,30.15,5.0,NNE,5.8,-,0.01,Rain,Light Freezing Rain,20,2013-11-25 22:03:00
4:14 PM,35.6,35.6,100,30.14,4.0,NNE,8.1,-,0.02,Rain,Light Freezing Rain,20,2013-11-25 22:14:00
4:22 PM,35.6,35.6,100,30.14,6.0,NNE,6.9,-,0.03,Rain,Light Freezing Rain,30,2013-11-25 22:22:00
4:27 PM,35.6,35.6,100,30.15,6.0,North,8.1,-,0.03,Rain,Light Rain,10,2013-11-25 22:27:00
4:35 PM,35.6,35.6,100,30.15,5.0,North,8.1,-,0.04,Rain,Light Freezing Rain,10,2013-11-25 22:35:00
4:53 PM,36.0,35.1,97,30.14,9.0,NNE,8.1,-,0.04,Rain,Light Freezing Rain,20,2013-11-25 22:53:00
5:03 PM,35.6,35.6,100,30.13,10.0,North,9.2,-,0.00,,Overcast,10,2013-11-25 23:03:00
5:53 PM,36.0,35.1,97,30.14,10.0,NNE,6.9,-,0.00,,Overcast,20,2013-11-25 23:53:00
6:53 PM,36.0,35.1,97,30.16,10.0,NNE,8.1,-,0.02,Snow,Light Snow,30,2013-11-26 00:53:00
7:14 PM,35.6,35.6,100,30.14,10.0,NNE,11.5,-,0.00,Rain,Light Freezing Rain,30,2013-11-26 01:14:00
7:21 PM,35.6,35.6,100,30.13,9.0,NNE,10.4,-,0.00,Snow,Light Snow,20,2013-11-26 01:21:00
7:42 PM,35.6,33.8,93,30.16,9.0,North,8.1,-,0.00,Rain,Light Freezing Rain,350,2013-11-26 01:42:00
7:53 PM,36.0,34.0,93,30.15,10.0,NNE,12.7,-,0.00,Rain,Light Freezing Rain,20,2013-11-26 01:53:00
8:13 PM,35.6,33.8,93,30.16,10.0,North,9.2,-,0.00,,Overcast,10,2013-11-26 02:13:00
8:53 PM,36.0,34.0,93,30.19,5.0,North,11.5,-,0.00,,Overcast,360,2013-11-26 02:53:00
9:28 PM,35.6,35.6,100,30.18,4.0,North,10.4,-,N/A,,Overcast,10,2013-11-26 03:28:00
9:53 PM,35.1,34.0,96,30.18,4.0,North,11.5,-,N/A,,Overcast,10,2013-11-26 03:53:00
10:13 PM,35.6,33.8,93,30.20,6.0,North,10.4,-,N/A,,Overcast,360,2013-11-26 04:13:00
10:53 PM,35.1,34.0,96,30.17,6.0,North,10.4,-,N/A,,Overcast,360,2013-11-26 04:53:00
11:53 PM,36.0,34.0,93,30.14,10.0,North,8.1,-,N/A,,Overcast,360,2013-11-26 05:53:00